Погода в Вишневке

Россия / Волгоградская область     49°25′37″N   46°46′18″E
темп.,
°C
ветер,
м/с
пор.,
м/с
влажн.,
%
обл.,
%
осадки,
мм/ч
давл.,
гПа
погр.,
м
14 мая, пт
пт1400:00+19вюв23686 0.0 101712
03:00+17юв46645 0.0 101769
06:00+18юв477079 0.0 1018186
09:00+24ююв5748100 0.0 1018521
12:00+29ююв68330 0.0 10181119
15:00+32ююв711250 0.0 10172491
18:00+27юв613365 0.0 1017272
21:00+22юв5143711 0.0 1018217
15 мая, сб
сб1500:00+20ююв5123197 0.0 1018169
03:00+18юв483313 0.0 1018102
06:00+19вюв512446 0.0 1018202
09:00+26ююв812305 0.0 1018577
12:00+31ююв811183 0.0 10182090
15:00+32ююв79195 0.0 10172774
18:00+27ююв46355 0.0 101695
21:00+22юв511380 0.0 1017163
16 мая, вс
вс1600:00+20ююв49355 0.0 1017128
03:00+18ююв33415 0.0 101724
06:00+20вюв33455 0.0 101763
09:00+27вюв58325 0.0 1017515
12:00+32ююв710225 0.0 10163211
15:00+32ююв69205 0.0 10153784
18:00+28юв61234100 0.0 1015312
21:00+23юв51128100 0.0 1015168
17 мая, пн
пн1700:00+20вюв4627100 0.0 101576
03:00+19вюв472982 0.0 101588
06:00+19в6134160 0.0 1015223
09:00+26юв71132100 0.0 1015533
12:00+31юв9111847 0.0 10153033
15:00+31вюв791778 0.0 10142952
18:00+27в5103537 0.0 1013203
21:00+22юв59309 0.0 1014117
18 мая, вт
вт1800:00+21вюв5726100 0.0 101486
03:00+19в592649 0.0 1013120
06:00+20в613415 0.0 1012239
09:00+28юв813275 0.0 1012579
12:00+33юв101115100 0.0 10123467
15:00+33юв8101999 0.0 10113665
18:00+28юв41032100 0.0 1011157
21:00+24юв51020100 0.0 1011133